Weather History for Quillayute, WA

Change the Weather History Date:

Monday, July 15, 2013

  Actual Average Record
Temperature  
Mean Temperature 66 °F 59 °F  
Max Temperature 86 °F 68 °F 89 °F (1970)
Min Temperature 46 °F 51 °F 40 °F (1987)
Degree Days  
Heating Degree Days 0 6  
Month to date heating degree days 48 104  
Since 1 June heating degree days 228 398  
Since 1 July heating degree days 48 104  
Cooling Degree Days 1 0  
Month to date cooling degree days 1 0  
Year to date cooling degree days 11 4  
Since 1 June cooling degree days 8 3  
Growing Degree Days 16 (Base 50)    
Moisture  
Dew Point 47 °F    
Average Humidity 54    
Maximum Humidity 86    
Minimum Humidity 21    
Precipitation  
Precipitation 0.00 in 0.06 in 0.66 in (1974)
Month to date precipitation T 1.09  
Year to date precipitation 58.80 53.34  
Sea Level Pressure  
Sea Level Pressure 30.00 in    
Wind  
Wind Speed 7 mph (NNW)    
Max Wind Speed 17 mph    
Max Gust Speed 23 mph    
Visibility 8 miles    
Events      
T = Trace of Precipitation, MM = Missing Value Source: NWS Daily Summary

Daily Weather History Graph

Daily Weather History Graph

Search for Another Location

Airport:

Trip Planner

Search our weather history database for the weather conditions in past years. The results will help you decide how hot, cold, wet, or windy it might be!

Date:

Astronomy

Jul. 15, 2013 Rise Set
Actual Time 5:35 AM PDT 9:12 PM PDT
Civil Twilight 4:55 AM PDT 9:51 PM PDT
Nautical Twilight 4:03 AM PDT 10:44 PM PDT
Astronomical Twilight 2:49 AM PDT 11:56 PM PDT
Moon 1:39 PM PDT (7/15) No Moon Set
Length of Visible Light 16h 55m
Length of Day
15h 37m
Waxing Crescent, 46% of the Moon is Illuminated
Jul 15
Waxing Crescent
Jul 15
First Quarter
Jul 22
Full
Jul 29
Last Quarter
Aug 6
New

Hourly Weather History & Observations

Time (PDT) Temp. Dew Point Humidity Pressure Visibility Wind Dir Wind Speed Gust Speed Precip Events Conditions
12:53 AM 51.1 °F 46.9 °F 86% 30.06 in 7.0 mi Calm Calm - N/A   Partly Cloudy
1:53 AM 51.1 °F 46.9 °F 86% 30.05 in 6.0 mi NNE 3.5 mph - N/A   Clear
2:53 AM 51.1 °F 46.9 °F 86% 30.05 in 5.0 mi ENE 3.5 mph - N/A   Clear
3:53 AM 48.9 °F 45.0 °F 86% 30.05 in 5.0 mi NE 4.6 mph - N/A   Partly Cloudy
4:53 AM 48.0 °F 43.0 °F 83% 30.05 in 8.0 mi Calm Calm - N/A   Clear
5:53 AM 46.9 °F 43.0 °F 86% 30.05 in 5.0 mi Calm Calm - N/A   Clear
6:53 AM 52.0 °F 46.9 °F 83% 30.06 in 6.0 mi Calm Calm - N/A   Haze
7:53 AM 57.9 °F 48.9 °F 72% 30.06 in 8.0 mi Calm Calm - N/A   Clear
8:53 AM 63.0 °F 52.0 °F 67% 30.06 in 9.0 mi Calm Calm - N/A   Clear
9:53 AM 68.0 °F 54.0 °F 61% 30.06 in 7.0 mi WSW 6.9 mph - N/A   Clear
10:53 AM 69.1 °F 53.1 °F 57% 30.05 in 8.0 mi SW 8.1 mph - N/A   Clear
11:53 AM 70.0 °F 54.0 °F 57% 30.04 in 8.0 mi WSW 6.9 mph - N/A   Clear
12:53 PM 73.9 °F 55.9 °F 53% 30.02 in 8.0 mi West 6.9 mph - N/A   Clear
1:53 PM 84.0 °F 44.1 °F 25% 30.00 in 10.0 mi NNE 10.4 mph 18.4 mph N/A   Clear
2:53 PM 84.9 °F 41.0 °F 21% 29.99 in 10.0 mi NNE 9.2 mph 23.0 mph N/A   Clear
3:53 PM 86.0 °F 41.0 °F 20% 29.97 in 10.0 mi NNE 16.1 mph 21.9 mph N/A   Clear
4:53 PM 82.0 °F 48.0 °F 30% 29.95 in 9.0 mi NNW 17.3 mph 20.7 mph N/A   Clear
5:53 PM 79.0 °F 46.9 °F 32% 29.94 in 10.0 mi NNW 10.4 mph - N/A   Clear
6:53 PM 77.0 °F 45.0 °F 32% 29.93 in 10.0 mi NNW 11.5 mph 18.4 mph N/A   Clear
7:53 PM 73.9 °F 44.1 °F 34% 29.93 in 10.0 mi NNW 11.5 mph 17.3 mph N/A   Clear
8:53 PM 69.1 °F 45.0 °F 42% 29.93 in 9.0 mi NNW 9.2 mph - N/A   Clear
9:53 PM 66.0 °F 44.1 °F 45% 29.93 in 10.0 mi North 8.1 mph - N/A   Clear
10:05 PM 64.4 °F 44.6 °F 49% 29.92 in 10.0 mi NNW 8.1 mph - N/A   Partly Cloudy
10:53 PM 63.0 °F 45.0 °F 52% 29.92 in 10.0 mi North 6.9 mph - N/A   Clear
11:53 PM 63.0 °F 45.0 °F 52% 29.90 in 10.0 mi NNE 6.9 mph - N/A   Clear